Location: Mountain View
(37.3861°N, 122.0839°W)
Time: 03:54:36
(UTC-07:00)

Amateur Radio Satellites - All Passes

Search period start: 30 March 2017 03:24
Search period end: 31 March 2017 03:24
Location: Mountain View, 37.3861°N, 122.0839°W

Satellite Date Start Highest point End Downlink Frequencies (MHz)
Time Altitude Azimuth
BEESAT 30 Mar 03:42:47 03:47:23 48° 260° (W) 03:52:00 436.000
ITUPSAT 1 30 Mar 04:02:15 04:06:29 31° 263° (W) 04:10:42 437.325
KKS-1 30 Mar 04:13:42 04:17:34 29° 70° (ENE) 04:21:27 437.445
Oscar 19 30 Mar 04:16:24 04:18:44 13° 298° (WNW) 04:21:04 437.125/150
CUBESAT XI-V 30 Mar 04:27:49 04:31:51 31° 71° (ENE) 04:35:53 437.345
ITAMSAT 1 30 Mar 04:30:36 04:35:49 83° 104° (ESE) 04:40:59 435.822/435.867
AO-7 30 Mar 04:37:02 04:45:17 64° 104° (ESE) 04:53:29 .
STARS 30 Mar 04:38:49 04:42:22 24° 68° (ENE) 04:45:55 437.465
AO-85 30 Mar 04:53:58 04:57:26 29° 53° (NE) 05:01:00 145.980
MOZHAYETS 4 30 Mar 05:03:13 05:06:09 17° 267° (W) 05:09:05
KKS-1 30 Mar 05:50:34 05:54:05 23° 265° (W) 05:57:38 437.445
NO-84 30 Mar 06:00:30 06:03:25 70° 314° (NW) 06:06:16 435.350 FM
CUBESAT XI-V 30 Mar 06:05:40 06:09:13 22° 265° (W) 06:12:48 437.345
LilacSat-2 30 Mar 06:11:03 06:11:32 10° 92° (E) 06:12:01 437.200
ITAMSAT 1 30 Mar 06:12:47 06:14:32 12° 300° (WNW) 06:16:15 435.822/435.867
STARS 30 Mar 06:14:45 06:18:33 28° 263° (W) 06:22:23 437.465
BEESAT 3 30 Mar 06:25:56 06:29:31 30° 53° (NE) 06:33:03 437.485
KAITUO 1B 30 Mar 06:26:47 06:28:25 12° 92° (E) 06:30:02 145.475/437.950
XW-2D 30 Mar 06:28:48 06:31:25 18° 94° (E) 06:34:00 145.860 - 145.880
AO-7 30 Mar 06:30:46 06:37:26 28° 302° (WNW) 06:44:05 .
XW-2B 30 Mar 06:34:39 06:37:30 20° 95° (E) 06:40:20 145.730 - 145.750
AO-85 30 Mar 06:34:40 06:37:39 21° 248° (WSW) 06:40:44 145.980
XW-2C 30 Mar 06:44:42 06:47:57 28° 97° (E) 06:51:10 145.795 - 145.815
YUBILEINY 30 Mar 06:44:44 06:51:47 28° 83° (E) 06:58:48 435.215
M-CUBED/EXP-1 PRIME 30 Mar 06:46:41 06:50:24 74° 252° (WSW) 06:54:29 437.505
CUTE-I 30 Mar 06:50:09 06:54:55 32° 97° (E) 06:59:39 437.470
BEESAT 2 30 Mar 06:51:03 06:54:20 23° 51° (NE) 06:57:34 435.950
STRAND 1 30 Mar 06:59:00 07:03:28 30° 69° (ENE) 07:07:55 437.568
DOVE 4 30 Mar 07:13:56 07:19:15 87° 281° (W) 07:24:22 437.250
JUGNU 30 Mar 07:15:31 07:17:49 12° 174° (S) 07:20:07 437.505
XW-2F 30 Mar 07:33:16 07:36:59 64° 283° (WNW) 07:40:40 145.980 - 146.000
LilacSat-2 30 Mar 07:42:25 07:46:01 44° 286° (WNW) 07:49:36 437.200
NUDT-PHONESAT 30 Mar 07:46:17 07:49:52 51° 285° (WNW) 07:53:26 437.300
KAITUO 1B 30 Mar 07:59:10 08:02:33 34° 287° (WNW) 08:05:55 145.475/437.950
HO-68 30 Mar 07:59:25 08:05:51 35° 97° (E) 08:12:15 435.675
XW-2D 30 Mar 08:02:28 08:05:35 25° 289° (WNW) 08:08:41 145.860 - 145.880
BEESAT 3 30 Mar 08:03:53 08:06:55 21° 249° (WSW) 08:09:54 437.485
XW-2B 30 Mar 08:08:39 08:11:36 22° 290° (WNW) 08:14:32 145.730 - 145.750
XW-2C 30 Mar 08:19:29 08:21:54 17° 291° (WNW) 08:24:20 145.795 - 145.815
SEEDS 30 Mar 08:19:33 08:23:11 28° 96° (E) 08:26:48 437.485
UWE-3 30 Mar 08:20:59 08:21:52 11° 90° (E) 08:22:44 435.000/436.395/437.385
XW-2A 30 Mar 08:24:58 08:28:20 69° 101° (E) 08:31:39 145.665 - 145.685
BEESAT 2 30 Mar 08:28:33 08:32:05 29° 247° (WSW) 08:35:35 435.950
CUTE-I 30 Mar 08:30:18 08:34:49 29° 293° (WNW) 08:39:20 437.470
CUTE 1.7 + AOD 2 30 Mar 08:34:06 08:38:20 68° 101° (E) 08:42:32 437.475
STRAND 1 30 Mar 08:38:08 08:42:33 29° 264° (W) 08:47:00 437.568
YUBILEINY 30 Mar 08:39:27 08:47:59 56° 281° (WNW) 08:56:32 435.215
ZACube-1 30 Mar 08:50:53 08:53:01 14° 92° (E) 08:55:09 437.345
PCSat 30 Mar 08:54:49 09:00:04 54° 112° (ESE) 09:05:21 145.827
DOVE 4 30 Mar 08:55:03 08:56:01 10° 300° (WNW) 08:56:59 437.250
CUBEBUG 2 30 Mar 09:00:51 09:05:08 58° 100° (E) 09:09:16 437.445
JUGNU 30 Mar 09:03:22 09:05:57 13° 184° (S) 09:08:33 437.505
AO-73 30 Mar 09:15:38 09:19:04 24° 95° (E) 09:22:26 145.935
AAUSAT CUBESAT 2 30 Mar 09:26:12 09:30:22 84° 102° (ESE) 09:34:31 437.432
SRMSAT 30 Mar 09:26:46 09:28:52 12° 171° (S) 09:30:57 437.500
PRISM 30 Mar 09:34:23 09:38:12 41° 72° (ENE) 09:42:03 437.425
HO-68 30 Mar 09:46:58 09:53:34 42° 294° (WNW) 10:00:11 435.675
TIGRISAT 30 Mar 09:54:22 09:58:34 34° 71° (ENE) 10:02:45 435.000
UWE-3 30 Mar 09:54:31 09:58:40 53° 285° (WNW) 10:02:42 435.000/436.395/437.385
SEEDS 30 Mar 09:55:30 09:58:41 21° 291° (WNW) 10:01:52 437.485
UNISAT 6 30 Mar 10:05:33 10:10:03 48° 73° (ENE) 10:14:32 437.425
FO-29 30 Mar 10:05:48 10:12:57 43° 69° (ENE) 10:19:39 435.910
DELFI C3 30 Mar 10:07:40 10:10:55 24° 96° (E) 10:14:10 145.870
Oscar 11 30 Mar 10:09:44 10:14:03 85° 279° (W) 10:18:21 .
ZACube-1 30 Mar 10:25:34 10:29:30 40° 287° (WNW) 10:33:22 437.345
PCSat 30 Mar 10:39:40 10:43:47 21° 310° (NW) 10:47:54 145.827
CUBEBUG 2 30 Mar 10:39:51 10:41:10 11° 296° (WNW) 10:42:28 437.445
AO-73 30 Mar 10:51:53 10:55:11 23° 291° (WNW) 10:58:26 145.935
PRISM 30 Mar 11:11:40 11:13:40 13° 267° (W) 11:15:40 437.425
NANOSAT C BR1 30 Mar 11:11:57 11:14:44 17° 67° (ENE) 11:17:31 145.865
SRMSAT 30 Mar 11:14:13 11:17:11 14° 182° (S) 11:20:09 437.500
EO-79 30 Mar 11:18:45 11:22:04 22° 69° (ENE) 11:25:24 145.935-145.965
AIST 2D 30 Mar 11:29:21 11:32:46 48° 75° (ENE) 11:36:11 435.315
TIGRISAT 30 Mar 11:31:42 11:35:17 21° 266° (W) 11:38:51 435.000
RS-15 30 Mar 11:32:37 11:43:22 42° 106° (ESE) 11:54:26 29.354- 29.394
ESTCUBE 1 30 Mar 11:34:04 11:36:41 15° 93° (E) 11:39:17 437.505/2401.250
DELFI C3 30 Mar 11:42:26 11:45:34 22° 290° (WNW) 11:48:42 145.870
UNISAT 6 30 Mar 11:44:18 11:46:58 15° 268° (W) 11:49:37 437.425
POLYITAN 1 30 Mar 11:47:20 11:51:27 48° 73° (ENE) 11:55:35 437.675
FO-29 30 Mar 11:50:46 11:57:52 38° 263° (W) 12:04:36 435.910
QB50P2 30 Mar 11:52:06 11:56:18 59° 75° (ENE) 12:00:32 145.880/145.840
LO-87 30 Mar 11:56:29 12:00:04 54° 100° (E) 12:03:37 145.935 - 145.965
BUGSAT 1 30 Mar 11:57:14 11:59:55 17° 67° (ENE) 12:02:36 437.445
DUCHIFAT 1 30 Mar 11:57:27 12:01:34 51° 74° (ENE) 12:05:42 145.980
VELOX 1 30 Mar 12:27:08 12:30:00 17° 94° (E) 12:32:51 145.980
NO-84 30 Mar 12:35:45 12:38:20 23° 38° (NE) 12:41:03 435.350 FM
SPROUT 30 Mar 12:37:44 12:40:46 19° 94° (E) 12:43:46 437.525
NANOSAT C BR1 30 Mar 12:46:12 12:50:08 36° 262° (W) 12:54:06 145.865
EO-79 30 Mar 12:54:00 12:57:40 28° 264° (W) 13:01:21 145.935-145.965
Gurwin Techsat 1B 30 Mar 13:02:30 13:05:54 18° 64° (ENE) 13:09:19 435.225
SRMSAT 30 Mar 13:05:01 13:05:29 10° 192° (SSW) 13:05:58 437.500
ESTCUBE 1 30 Mar 13:09:22 13:13:40 45° 287° (WNW) 13:17:58 437.505/2401.250
DX 1 30 Mar 13:24:51 13:28:39 28° 97° (E) 13:32:26 434.975-435.025
SO-50 30 Mar 13:24:59 13:28:58 28° 113° (ESE) 13:32:53 436.795
POLYITAN 1 30 Mar 13:25:32 13:27:28 13° 268° (W) 13:29:24 437.675
BUGSAT 1 30 Mar 13:30:59 13:34:56 38° 262° (W) 13:38:56 437.445
QB50P2 30 Mar 13:32:05 13:32:25 10° 269° (W) 13:32:45 145.880/145.840
DUCHIFAT 1 30 Mar 13:35:58 13:37:30 12° 268° (W) 13:39:03 145.980
RS-15 30 Mar 13:43:38 13:55:24 58° 308° (NW) 14:07:37 29.354- 29.394
AO-7 30 Mar 13:46:09 13:50:22 15° 50° (NE) 13:54:35 .
Oscar 19 30 Mar 13:49:38 13:54:44 86° 77° (ENE) 13:59:54 437.125/150
UKube-1 30 Mar 13:55:31 13:59:40 44° 100° (E) 14:03:48 .
50 SAT 30 Mar 14:02:10 14:05:34 47° 285° (WNW) 14:08:57 437.505
VELOX 1 30 Mar 14:02:25 14:06:35 40° 288° (WNW) 14:10:44 145.980
ITAMSAT 1 30 Mar 14:10:53 14:12:53 12° 61° (ENE) 14:14:54 435.822/435.867
SPROUT 30 Mar 14:12:54 14:16:43 32° 289° (WNW) 14:20:30 437.525
NO-84 30 Mar 14:13:04 14:15:50 26° 231° (SW) 14:18:47 435.350 FM
Gurwin Techsat 1B 30 Mar 14:40:09 14:45:21 56° 259° (W) 14:50:36 435.225
DX 1 30 Mar 15:01:13 15:04:40 23° 292° (WNW) 15:08:06 434.975-435.025
SO-50 30 Mar 15:05:14 15:09:19 30° 308° (NW) 15:13:24 436.795
MOZHAYETS 4 30 Mar 15:23:56 15:25:09 11° 91° (E) 15:26:23
UKube-1 30 Mar 15:32:49 15:35:17 15° 295° (WNW) 15:37:46 .
AO-7 30 Mar 15:33:27 15:41:42 72° 69° (ENE) 15:49:58 .
BEESAT 30 Mar 15:44:41 15:49:18 49° 100° (E) 15:53:52 436.000
ITAMSAT 1 30 Mar 15:46:24 15:51:37 80° 256° (WSW) 15:56:53 435.822/435.867
O/OREOS (USA 219) 30 Mar 15:52:52 15:56:47 29° 103° (ESE) 16:00:44 437.305
RS-15 30 Mar 16:02:40 16:11:28 22° 337° (NNW) 16:20:23 29.354- 29.394
ITUPSAT 1 30 Mar 16:03:57 16:08:43 78° 104° (ESE) 16:13:27 437.325
MOZHAYETS 4 30 Mar 16:58:11 17:02:40 61° 285° (WNW) 17:07:09
YUBILEINY 30 Mar 16:59:42 17:01:54 11° 60° (ENE) 17:04:07 435.215
BEESAT 30 Mar 17:23:43 17:26:39 16° 295° (WNW) 17:29:33 436.000
XW-2C 30 Mar 17:26:07 17:27:15 11° 66° (ENE) 17:28:24 145.795 - 145.815
AO-7 30 Mar 17:29:00 17:35:03 22° 266° (W) 17:41:10 .
O/OREOS (USA 219) 30 Mar 17:32:29 17:36:10 24° 299° (WNW) 17:39:52 437.305
KKS-1 30 Mar 17:42:13 17:46:43 79° 103° (ESE) 17:51:11 437.445
ITUPSAT 1 30 Mar 17:44:51 17:45:51 11° 299° (WNW) 17:46:51 437.325
PCSat 30 Mar 17:44:56 17:49:39 29° 53° (NE) 17:54:20 145.827
CUBESAT XI-V 30 Mar 18:02:43 18:07:23 79° 284° (WNW) 18:12:04 437.345
STARS 30 Mar 18:05:16 18:09:38 59° 101° (E) 18:13:58 437.465
CUTE-I 30 Mar 18:09:46 18:14:50 44° 71° (ENE) 18:19:55 437.470
XW-2F 30 Mar 18:11:58 18:15:31 40° 74° (ENE) 18:19:04 145.980 - 146.000
DOVE 4 30 Mar 18:16:39 18:21:23 73° 76° (ENE) 18:26:26 437.250
LilacSat-2 30 Mar 18:21:43 18:25:29 61° 76° (ENE) 18:29:15 437.200
RS-15 30 Mar 18:22:45 18:30:47 19° 15° (NNE) 18:38:43 29.354- 29.394
NUDT-PHONESAT 30 Mar 18:23:17 18:26:52 46° 75° (ENE) 18:30:27 437.300
HO-68 30 Mar 18:27:14 18:32:23 22° 59° (ENE) 18:37:31 435.675
M-CUBED/EXP-1 PRIME 30 Mar 18:30:00 18:30:47 10° 95° (E) 18:31:33 437.505
KAITUO 1B 30 Mar 18:36:32 18:40:15 72° 76° (ENE) 18:43:58 145.475/437.950
XW-2D 30 Mar 18:40:43 18:44:31 75° 259° (WSW) 18:48:18 145.860 - 145.880
XW-2B 30 Mar 18:46:49 18:50:35 64° 259° (W) 18:54:21 145.730 - 145.750
YUBILEINY 30 Mar 18:51:49 19:00:31 67° 81° (E) 19:09:10 435.215
XW-2A 30 Mar 18:55:16 18:57:30 16° 69° (ENE) 18:59:43 145.665 - 145.685
XW-2C 30 Mar 18:57:22 19:01:01 45° 261° (W) 19:04:40 145.795 - 145.815
Tancredo 1 30 Mar 19:06:37 19:09:42 59° 138° (SE) 19:12:49 437.200
AO-85 30 Mar 19:07:31 19:10:19 16° 111° (ESE) 19:13:01 145.980
SEEDS 30 Mar 19:10:16 19:12:43 15° 67° (ENE) 19:15:11 437.485
STRAND 1 30 Mar 19:13:42 19:15:13 11° 90° (E) 19:16:45 437.568
CUTE 1.7 + AOD 2 30 Mar 19:24:42 19:28:32 35° 72° (ENE) 19:32:22 437.475
PCSat 30 Mar 19:28:07 19:33:04 37° 250° (WSW) 19:37:59 145.827
ISS 30 Mar 19:28:38 19:31:52 89° 337° (NNW) 19:35:08 437.550
STARS 30 Mar 19:43:45 19:45:26 12° 297° (WNW) 19:47:06 437.465
ZACube-1 30 Mar 19:46:42 19:47:08 10° 64° (ENE) 19:47:33 437.345
XW-2F 30 Mar 19:48:33 19:49:50 11° 268° (W) 19:51:05 145.980 - 146.000
CUTE-I 30 Mar 19:51:02 19:55:02 21° 266° (W) 19:59:02 437.470
CUBEBUG 2 30 Mar 19:56:12 20:00:37 39° 72° (ENE) 20:04:59 437.445
DOVE 4 30 Mar 19:58:47 19:59:40 10° 272° (W) 20:00:32 437.250
M-CUBED/EXP-1 PRIME 30 Mar 20:00:55 20:05:37 74° 289° (WNW) 20:10:12 437.505
AO-73 30 Mar 20:09:32 20:12:27 17° 67° (ENE) 20:15:20 145.935
HO-68 30 Mar 20:12:19 20:19:25 69° 257° (WSW) 20:26:34 435.675
AAUSAT CUBESAT 2 30 Mar 20:14:08 20:17:58 39° 73° (ENE) 20:21:48 437.432
XW-2A 30 Mar 20:27:15 20:30:03 23° 264° (W) 20:32:53 145.665 - 145.685
RS-15 30 Mar 20:36:10 20:47:50 45° 46° (NE) 20:58:58 29.354- 29.394
Tancredo 1 30 Mar 20:43:53 20:46:03 17° 334° (NNW) 20:48:12 437.200
SEEDS 30 Mar 20:44:10 20:48:03 38° 262° (W) 20:51:57 437.485
AO-85 30 Mar 20:46:13 20:50:26 43° 304° (NW) 20:54:25 145.980
UWE-3 30 Mar 20:48:23 20:53:03 90° 32° (NNE) 20:57:38 435.000/436.395/437.385
STRAND 1 30 Mar 20:49:47 20:54:53 73° 285° (WNW) 20:59:56 437.568
YUBILEINY 30 Mar 20:50:05 20:56:28 23° 278° (W) 21:02:51 435.215
DELFI C3 30 Mar 20:53:27 20:54:23 11° 65° (ENE) 20:55:18 145.870
CUTE 1.7 + AOD 2 30 Mar 21:01:46 21:04:27 16° 267° (W) 21:07:08 437.475
Oscar 11 30 Mar 21:02:07 21:06:19 54° 74° (ENE) 21:10:31 .
ISS 30 Mar 21:06:50 21:08:45 14° 337° (NNW) 21:10:39 437.550
ZACube-1 30 Mar 21:18:16 21:22:48 73° 259° (W) 21:27:15 437.345
CUBEBUG 2 30 Mar 21:33:57 21:37:18 19° 267° (W) 21:40:38 437.445
AO-73 30 Mar 21:44:06 21:48:21 40° 262° (W) 21:52:33 145.935
BEESAT 3 30 Mar 21:50:35 21:54:29 79° 301° (WNW) 21:58:28 437.485
AAUSAT CUBESAT 2 30 Mar 21:51:25 21:53:34 14° 268° (W) 21:55:44 437.432
SO-50 30 Mar 21:58:29 22:01:23 17° 46° (NE) 22:04:15 436.795
UNISAT 6 30 Mar 22:02:04 22:03:05 11° 90° (E) 22:04:05 437.425
BEESAT 2 30 Mar 22:17:09 22:21:05 76° 118° (ESE) 22:25:05 435.950
DELFI C3 30 Mar 22:24:52 22:28:40 51° 260° (W) 22:32:31 145.870
LO-87 30 Mar 22:31:37 22:33:56 16° 69° (ENE) 22:36:15 145.935 - 145.965
ESTCUBE 1 30 Mar 22:33:05 22:34:34 11° 63° (ENE) 22:36:02 437.505/2401.250
Oscar 11 30 Mar 22:41:27 22:42:44 11° 269° (W) 22:44:01 .
RS-15 30 Mar 22:48:54 23:00:38 57° 249° (WSW) 23:11:49 29.354- 29.394
PRISM 30 Mar 22:52:21 22:56:33 88° 281° (W) 23:00:43 437.425
FO-29 30 Mar 23:03:35 23:08:40 34° 96° (E) 23:13:24 435.910
VELOX 1 30 Mar 23:23:42 23:25:27 12° 64° (ENE) 23:27:14 145.980
TIGRISAT 30 Mar 23:24:05 23:28:26 84° 284° (WNW) 23:32:42 435.000
SPROUT 30 Mar 23:30:35 23:32:14 12° 65° (ENE) 23:33:53 437.525
UNISAT 6 30 Mar 23:35:52 23:40:09 56° 286° (WNW) 23:44:20 437.425
SO-50 30 Mar 23:37:46 23:42:11 57° 243° (WSW) 23:46:34 436.795
QB50P2 30 Mar 23:41:29 23:42:37 11° 91° (E) 23:43:45 145.880/145.840
BEESAT 2 30 Mar 23:58:15 23:59:22 11° 316° (NW) 00:00:29 435.950
LO-87 31 Mar 00:04:05 00:07:09 26° 264° (W) 00:10:15 145.935 - 145.965
ESTCUBE 1 31 Mar 00:06:21 00:10:47 64° 259° (W) 00:15:13 437.505/2401.250
DX 1 31 Mar 00:18:51 00:22:01 20° 67° (ENE) 00:25:12 434.975-435.025
ISS 31 Mar 00:23:21 00:24:14 11° 18° (NNE) 00:25:07 437.550
AIST 2D 31 Mar 00:29:23 00:32:53 84° 101° (ESE) 00:36:21 435.315
NANOSAT C BR1 31 Mar 00:32:15 00:36:12 38° 99° (E) 00:40:05 145.865
50 SAT 31 Mar 00:33:23 00:36:36 39° 74° (ENE) 00:39:51 437.505
EO-79 31 Mar 00:39:56 00:44:04 52° 100° (E) 00:48:09 145.935-145.965
UKube-1 31 Mar 00:48:04 00:51:47 29° 70° (ENE) 00:55:31 .
FO-29 31 Mar 00:48:53 00:53:36 27° 295° (WNW) 00:58:00 435.910
VELOX 1 31 Mar 00:57:02 01:01:22 59° 259° (W) 01:05:45 145.980
SPROUT 31 Mar 01:03:24 01:07:37 56° 260° (W) 01:11:52 437.525
POLYITAN 1 31 Mar 01:09:38 01:13:49 67° 284° (WNW) 01:17:58 437.675
QB50P2 31 Mar 01:14:34 01:18:42 53° 286° (WNW) 01:22:47 145.880/145.840
BUGSAT 1 31 Mar 01:14:43 01:18:27 33° 97° (E) 01:22:09 437.445
DUCHIFAT 1 31 Mar 01:18:49 01:22:59 63° 285° (WNW) 01:27:05 145.980
Tancredo 1 31 Mar 01:34:44 01:37:37 31° 33° (NNE) 01:40:30 437.200
DX 1 31 Mar 01:54:02 01:57:57 33° 262° (W) 02:01:54 434.975-435.025
ISS 31 Mar 01:58:11 02:01:22 45° 37° (NE) 02:04:33 437.550
Oscar 19 31 Mar 02:03:26 02:08:11 35° 98° (E) 02:12:53 437.125/150
O/OREOS (USA 219) 31 Mar 02:04:19 02:08:42 41° 65° (ENE) 02:13:02 437.305
NANOSAT C BR1 31 Mar 02:08:58 02:11:34 16° 293° (WNW) 02:14:09 145.865
EO-79 31 Mar 02:17:37 02:19:21 12° 295° (WNW) 02:21:03 145.935-145.965
UKube-1 31 Mar 02:24:28 02:27:47 21° 264° (W) 02:31:07 .
BEESAT 31 Mar 02:48:54 02:53:26 45° 72° (ENE) 02:57:59 436.000
BUGSAT 1 31 Mar 02:50:46 02:53:32 18° 293° (WNW) 02:56:18 437.445
Gurwin Techsat 1B 31 Mar 02:58:16 03:03:34 68° 102° (ESE) 03:08:51 435.225
ITUPSAT 1 31 Mar 03:08:22 03:13:08 72° 74° (ENE) 03:17:55 437.325
Tancredo 1 31 Mar 03:11:02 03:13:36 22° 229° (SW) 03:16:10 437.200
